• In Hungary
  • List of Countries
  • For 7 days
  • Water Temperature
  • Satellite Maps
  • Weather Map
  • News
  • Weather Widgets
  • user-avatar
    Login

    Hourly Weather Perekhresnyi

    Today, 21 January, Sunday

    Time Temperature Precipitation Wind Pressure Humidity
    00:00 -6°C° 0.1 mm 3 mps 695 mmHg 100%
    01:00 -4°C° 0.2 mm 2 mps 695 mmHg 100%
    02:00 -4°C° 0.6 mm 2 mps 695 mmHg 100%
    03:00 -5°C° 0.2 mm 3 mps 694 mmHg 100%
    04:00 -4°C° 0.3 mm 2 mps 694 mmHg 100%
    05:00 -5°C° 0.5 mm 3 mps 694 mmHg 100%
    06:00 -5°C° 0.4 mm 4 mps 694 mmHg 100%
    07:00 -5°C° 0.7 mm 4 mps 694 mmHg 100%
    08:00 -5°C° 0.5 mm 4 mps 694 mmHg 100%
    09:00 -5°C° 0.3 mm 4 mps 693 mmHg 100%
    10:00 -5°C° 0 mm 4 mps 693 mmHg 100%
    11:00 -4°C° 0.1 mm 4 mps 693 mmHg 100%
    12:00 -3°C° 0 mm 4 mps 693 mmHg 100%
    13:00 -4°C° 0 mm 5 mps 693 mmHg 95%
    14:00 -2°C° 0 mm 5 mps 693 mmHg 91%
    15:00 -2°C° 0 mm 4 mps 692 mmHg 90%
    16:00 -2°C° 0 mm 4 mps 693 mmHg 93%
    17:00 -2°C° 0.5 mm 3 mps 692 mmHg 100%
    18:00 -5°C° 1.4 mm 5 mps 692 mmHg 100%
    19:00 -5°C° 1.9 mm 5 mps 692 mmHg 100%
    20:00 -5°C° 1.7 mm 6 mps 691 mmHg 100%
    21:00 -6°C° 1.2 mm 6 mps 691 mmHg 100%
    22:00 -6°C° 1.4 mm 6 mps 691 mmHg 100%
    23:00 -8°C° 1.6 mm 6 mps 692 mmHg 100%

    Tomorrow, 22 January, Monday

    Time Temperature Precipitation Wind Pressure Humidity
    00:00 -8°C° 1 mm 6 mps 692 mmHg 100%
    01:00 -8°C° 0.4 mm 7 mps 691 mmHg 100%
    02:00 -9°C° 0.1 mm 7 mps 692 mmHg 100%
    03:00 -9°C° 0.2 mm 7 mps 692 mmHg 100%
    04:00 -11°C° 0.1 mm 7 mps 692 mmHg 100%
    05:00 -11°C° 0.1 mm 7 mps 692 mmHg 100%
    06:00 -11°C° 0.1 mm 7 mps 692 mmHg 100%
    07:00 -11°C° 0.3 mm 7 mps 693 mmHg 100%
    08:00 -11°C° 0.1 mm 7 mps 694 mmHg 100%
    09:00 -11°C° 0 mm 7 mps 694 mmHg 100%
    10:00 -9°C° 0 mm 6 mps 695 mmHg 100%
    11:00 -9°C° 0 mm 6 mps 695 mmHg 100%
    12:00 -8°C° 0 mm 6 mps 696 mmHg 100%
    13:00 -8°C° 0 mm 6 mps 696 mmHg 100%
    14:00 -6°C° 0 mm 6 mps 696 mmHg 100%
    15:00 -8°C° 0 mm 6 mps 697 mmHg 100%
    16:00 -7°C° 0 mm 5 mps 697 mmHg 100%
    17:00 -8°C° 0 mm 5 mps 697 mmHg 100%
    18:00 -9°C° 0 mm 4 mps 697 mmHg 100%
    19:00 -9°C° 0 mm 4 mps 698 mmHg 100%
    20:00 -10°C° 0 mm 4 mps 698 mmHg 100%
    21:00 -10°C° 0 mm 4 mps 699 mmHg 100%
    22:00 -10°C° 0 mm 4 mps 699 mmHg 100%
    23:00 -11°C° 0 mm 4 mps 700 mmHg 100%

    Day after tomorrow, 23 January, Tuesday

    Time Temperature Precipitation Wind Pressure Humidity
    00:00 -11°C° 0 mm 4 mps 700 mmHg 100%
    01:00 -10°C° 0 mm 3 mps 700 mmHg 100%
    02:00 -10°C° 0 mm 3 mps 701 mmHg 100%
    03:00 -10°C° 0 mm 3 mps 701 mmHg 100%
    04:00 -10°C° 0 mm 3 mps 701 mmHg 100%
    05:00 -10°C° 0 mm 3 mps 702 mmHg 100%
    06:00 -10°C° 0 mm 3 mps 702 mmHg 100%
    07:00 -10°C° 0 mm 3 mps 703 mmHg 100%
    08:00 -10°C° 0 mm 3 mps 703 mmHg 99%
    09:00 -10°C° 0 mm 3 mps 704 mmHg 97%
    10:00 -9°C° 0 mm 3 mps 705 mmHg 93%
    11:00 -8°C° 0 mm 3 mps 705 mmHg 91%
    12:00 -6°C° 0 mm 2 mps 706 mmHg 92%
    13:00 -6°C° 0 mm 3 mps 707 mmHg 94%
    14:00 -6°C° 0 mm 3 mps 707 mmHg 96%
    15:00 -6°C° 0 mm 3 mps 707 mmHg 97%
    16:00 -5°C° 0 mm 2 mps 707 mmHg 98%
    17:00 -7°C° 0 mm 2 mps 707 mmHg 96%
    18:00 -7°C° 0 mm 2 mps 708 mmHg 89%
    19:00 -8°C° 0 mm 2 mps 708 mmHg 72%
    20:00 -8°C° 0 mm 2 mps 708 mmHg 57%
    21:00 -8°C° 0 mm 2 mps 709 mmHg 48%
    22:00 -8°C° 0 mm 2 mps 709 mmHg 41%
    23:00 -8°C° 0 mm 2 mps 709 mmHg 36%

    24 January, Wednesday

    Time Temperature Precipitation Wind Pressure Humidity
    00:00 -8°C° 0 mm 2 mps 710 mmHg 34%
    01:00 -7°C° 0 mm 1 mps 710 mmHg 38%
    02:00 -9°C° 0 mm 2 mps 710 mmHg 45%
    03:00 -9°C° 0 mm 2 mps 710 mmHg 52%
    04:00 -10°C° 0 mm 2 mps 710 mmHg 66%
    05:00 -10°C° 0 mm 2 mps 710 mmHg 75%
    06:00 -10°C° 0 mm 2 mps 710 mmHg 84%
    07:00 -10°C° 0 mm 2 mps 710 mmHg 89%
    08:00 -10°C° 0 mm 2 mps 710 mmHg 90%
    09:00 -10°C° 0 mm 2 mps 710 mmHg 88%
    10:00 -9°C° 0 mm 2 mps 711 mmHg 85%
    11:00 -9°C° 0 mm 2 mps 711 mmHg 82%
    12:00 -7°C° 0 mm 2 mps 711 mmHg 84%
    13:00 -6°C° 0 mm 2 mps 711 mmHg 89%
    14:00 -3°C° 0 mm 1 mps 711 mmHg 89%

    25 January, Thursday

    Time Temperature Precipitation Wind Pressure Humidity

    26 January, Friday

    Time Temperature Precipitation Wind Pressure Humidity
    Show more